GLD1793 SBPA-SUSO

Flight info

Callsign GLD1793
Flight time 1h 11m
Altitude 24000
Route DCT ORATO A314 BGE DCT SURV W25 MEVIV DCT
Aircraft B738/M-SDFGIRY/S

Departure

Time 2026-05-01 11:31
Airport Porto Alegre-Salgado Filho International Airport (SBPA)

Arrival

Time 2026-05-01 12:42
Airport Nueva Hesperides International Airport (SUSO)
Time Latitude Longitude Altitude Speed Heading
2026-05-01 11:14 -29.99204 -51.17901 18 ft 0 kts 211°
2026-05-01 11:24 -29.99201 -51.17899 18 ft 2 kts 210°
2026-05-01 11:25 -29.99187 -51.17889 20 ft 2 kts 213°
2026-05-01 11:25 -29.99161 -51.17866 18 ft 2 kts 231°
2026-05-01 11:25 -29.99154 -51.17849 18 ft 2 kts 268°
2026-05-01 11:26 -29.99154 -51.17838 18 ft 0 kts 276°
2026-05-01 11:27 -29.99154 -51.17839 18 ft 1 kts 276°
2026-05-01 11:28 -29.99152 -51.17858 18 ft 3 kts 276°
2026-05-01 11:28 -29.99147 -51.17881 18 ft 4 kts 294°
2026-05-01 11:28 -29.99127 -51.17922 19 ft 7 kts 301°
2026-05-01 11:29 -29.99199 -51.18041 18 ft 13 kts 219°
2026-05-01 11:29 -29.99242 -51.18133 18 ft 13 kts 244°
2026-05-01 11:29 -29.99391 -51.18251 19 ft 13 kts 201°
2026-05-01 11:30 -29.99443 -51.18197 20 ft 13 kts 89°
2026-05-01 11:30 -29.99443 -51.18177 20 ft 0 kts 91°
2026-05-01 11:30 -29.99443 -51.18167 20 ft 14 kts 89°
2026-05-01 11:31 -29.99452 -51.17638 20 ft 115 kts 91°
2026-05-01 11:31 -29.99490 -51.16383 160 ft 187 kts 91°
2026-05-01 11:31 -29.99547 -51.14881 1397 ft 182 kts 91°
2026-05-01 11:31 -29.99643 -51.13491 2799 ft 180 kts 90°
2026-05-01 11:32 -29.99784 -51.11950 3331 ft 210 kts 91°
2026-05-01 11:32 -29.99989 -51.10167 3585 ft 242 kts 102°
2026-05-01 11:32 -30.00887 -51.08453 4199 ft 260 kts 135°
2026-05-01 11:32 -30.02502 -51.07374 4799 ft 280 kts 166°
2026-05-01 11:33 -30.04450 -51.07333 5694 ft 286 kts 195°
2026-05-01 11:33 -30.06211 -51.08378 6589 ft 287 kts 225°
2026-05-01 11:33 -30.07342 -51.10246 7526 ft 283 kts 247°
2026-05-01 11:33 -30.08113 -51.12338 8517 ft 282 kts 250°
2026-05-01 11:34 -30.08823 -51.14458 9441 ft 284 kts 251°
2026-05-01 11:34 -30.09526 -51.16595 10335 ft 287 kts 251°
2026-05-01 11:34 -30.10266 -51.18835 10664 ft 311 kts 251°
2026-05-01 11:34 -30.11075 -51.21266 10869 ft 336 kts 251°
2026-05-01 11:35 -30.11927 -51.23793 11369 ft 346 kts 251°
2026-05-01 11:35 -30.12813 -51.26399 12114 ft 350 kts 251°
2026-05-01 11:35 -30.13708 -51.29019 12911 ft 351 kts 251°
2026-05-01 11:35 -30.14613 -51.31662 13682 ft 355 kts 251°
2026-05-01 11:36 -30.15525 -51.34324 14359 ft 358 kts 251°
2026-05-01 11:36 -30.16447 -51.37015 15020 ft 362 kts 252°
2026-05-01 11:36 -30.17377 -51.39732 15674 ft 366 kts 252°
2026-05-01 11:36 -30.18314 -51.42469 16329 ft 369 kts 252°
2026-05-01 11:37 -30.19265 -51.45251 16977 ft 373 kts 252°
2026-05-01 11:37 -30.20224 -51.48059 17625 ft 376 kts 252°
2026-05-01 11:37 -30.21188 -51.50884 18261 ft 380 kts 252°
2026-05-01 11:37 -30.22164 -51.53745 18821 ft 384 kts 253°
2026-05-01 11:38 -30.23144 -51.56618 19458 ft 384 kts 253°
2026-05-01 11:38 -30.24125 -51.59495 20092 ft 385 kts 253°
2026-05-01 11:38 -30.25095 -51.62347 20670 ft 387 kts 253°
2026-05-01 11:38 -30.26083 -51.65253 21266 ft 388 kts 253°
2026-05-01 11:39 -30.27072 -51.68165 21834 ft 390 kts 253°
2026-05-01 11:39 -30.28066 -51.71094 22405 ft 392 kts 253°
2026-05-01 11:39 -30.29063 -51.74035 22957 ft 393 kts 253°
2026-05-01 11:39 -30.30065 -51.76995 23486 ft 396 kts 253°
2026-05-01 11:40 -30.31074 -51.79972 23939 ft 397 kts 253°
2026-05-01 11:40 -30.32088 -51.82957 24386 ft 399 kts 253°
2026-05-01 11:40 -30.33283 -51.85871 24810 ft 405 kts 246°
2026-05-01 11:40 -30.34682 -51.88711 25264 ft 406 kts 245°
2026-05-01 11:41 -30.36099 -51.91541 25722 ft 407 kts 246°
2026-05-01 11:41 -30.37498 -51.94399 26166 ft 408 kts 247°
2026-05-01 11:41 -30.38883 -51.97272 26579 ft 409 kts 247°
2026-05-01 11:41 -30.40269 -52.00159 26986 ft 410 kts 247°
2026-05-01 11:42 -30.41657 -52.03045 27416 ft 411 kts 247°
2026-05-01 11:42 -30.43049 -52.05939 27818 ft 412 kts 248°
2026-05-01 11:42 -30.44433 -52.08820 28190 ft 414 kts 248°
2026-05-01 11:42 -30.45838 -52.11745 28566 ft 415 kts 248°
2026-05-01 11:43 -30.47243 -52.14674 28951 ft 416 kts 248°
2026-05-01 11:43 -30.48652 -52.17608 29458 ft 414 kts 248°
2026-05-01 11:43 -30.50044 -52.20505 30131 ft 408 kts 248°
2026-05-01 11:44 -30.52780 -52.26208 31140 ft 401 kts 248°
2026-05-01 11:44 -30.54134 -52.29041 31550 ft 400 kts 248°
2026-05-01 11:44 -30.55482 -52.31864 31969 ft 399 kts 249°
2026-05-01 11:44 -30.56802 -52.34631 32409 ft 396 kts 249°
2026-05-01 11:45 -30.58149 -52.37453 32873 ft 393 kts 249°
2026-05-01 11:45 -30.59456 -52.40194 33288 ft 392 kts 249°
2026-05-01 11:45 -30.60772 -52.42958 33639 ft 392 kts 249°
2026-05-01 11:45 -30.62090 -52.45729 33985 ft 391 kts 249°
2026-05-01 11:46 -30.64741 -52.51316 34091 ft 397 kts 249°
2026-05-01 11:46 -30.67399 -52.56909 34080 ft 392 kts 249°
2026-05-01 11:47 -30.70023 -52.62438 34082 ft 393 kts 249°
2026-05-01 11:47 -30.72695 -52.68098 34081 ft 405 kts 249°
2026-05-01 11:48 -30.75439 -52.73913 34077 ft 415 kts 248°
2026-05-01 11:48 -30.78235 -52.79829 34076 ft 418 kts 249°
2026-05-01 11:49 -30.81041 -52.85773 34066 ft 419 kts 249°
2026-05-01 11:49 -30.83826 -52.91683 34065 ft 419 kts 249°
2026-05-01 11:50 -30.86625 -52.97639 34061 ft 419 kts 249°
2026-05-01 11:50 -30.89418 -53.03591 34077 ft 418 kts 249°
2026-05-01 11:51 -30.92199 -53.09527 34059 ft 417 kts 249°
2026-05-01 11:51 -30.94971 -53.15455 34061 ft 416 kts 249°
2026-05-01 11:52 -30.97717 -53.21333 34064 ft 415 kts 249°
2026-05-01 11:52 -31.00468 -53.27247 34076 ft 414 kts 249°
2026-05-01 11:53 -31.03217 -53.33146 34080 ft 414 kts 249°
2026-05-01 11:53 -31.05963 -53.39050 34075 ft 415 kts 249°
2026-05-01 11:54 -31.08249 -53.43977 34066 ft 415 kts 249°
2026-05-01 11:54 -31.10997 -53.49906 34063 ft 415 kts 249°
2026-05-01 11:55 -31.13744 -53.55843 34060 ft 415 kts 249°
2026-05-01 11:55 -31.16485 -53.61777 34054 ft 415 kts 249°
2026-05-01 11:56 -31.19224 -53.67713 34054 ft 415 kts 249°
2026-05-01 11:56 -31.21963 -53.73651 34054 ft 415 kts 249°
2026-05-01 11:57 -31.24712 -53.79616 34058 ft 416 kts 249°
2026-05-01 11:57 -31.27456 -53.85580 34045 ft 417 kts 250°
2026-05-01 11:58 -31.30182 -53.91515 34048 ft 417 kts 250°
2026-05-01 11:59 -31.34297 -54.00491 34055 ft 418 kts 250°
2026-05-01 11:59 -31.37005 -54.06504 34027 ft 414 kts 255°
2026-05-01 12:00 -31.37879 -54.12922 34034 ft 396 kts 276°
2026-05-01 12:00 -31.37573 -54.16105 34025 ft 392 kts 286°
2026-05-01 12:01 -31.34856 -54.25107 34045 ft 392 kts 291°
2026-05-01 12:01 -31.33006 -54.31070 34034 ft 393 kts 291°
2026-05-01 12:02 -31.31156 -54.37090 34025 ft 393 kts 291°
2026-05-01 12:02 -31.29309 -54.43123 34027 ft 393 kts 291°
2026-05-01 12:03 -31.27462 -54.49149 34009 ft 394 kts 290°
2026-05-01 12:03 -31.25604 -54.55203 34023 ft 396 kts 291°
2026-05-01 12:04 -31.23736 -54.61278 34027 ft 398 kts 291°
2026-05-01 12:04 -31.21859 -54.67373 34034 ft 399 kts 291°
2026-05-01 12:05 -31.19974 -54.73476 34029 ft 399 kts 291°
2026-05-01 12:05 -31.17153 -54.82595 34026 ft 399 kts 291°
2026-05-01 12:06 -31.15274 -54.88653 34027 ft 399 kts 291°
2026-05-01 12:06 -31.13382 -54.94741 34027 ft 399 kts 291°
2026-05-01 12:07 -31.11484 -55.00835 34048 ft 399 kts 291°
2026-05-01 12:07 -31.09588 -55.06915 34025 ft 398 kts 291°
2026-05-01 12:08 -31.07692 -55.12981 34027 ft 397 kts 291°
2026-05-01 12:08 -31.05796 -55.19036 34019 ft 397 kts 291°
2026-05-01 12:09 -31.03907 -55.25056 34023 ft 398 kts 291°
2026-05-01 12:09 -31.01996 -55.31137 34033 ft 399 kts 291°
2026-05-01 12:10 -30.99118 -55.40275 33971 ft 401 kts 292°
2026-05-01 12:11 -30.97833 -55.49919 33968 ft 409 kts 273°
2026-05-01 12:11 -30.98751 -55.56545 33978 ft 419 kts 263°
2026-05-01 12:12 -31.00170 -55.63110 33980 ft 421 kts 263°
2026-05-01 12:12 -31.01597 -55.69746 33970 ft 422 kts 263°
2026-05-01 12:13 -31.02995 -55.76384 33998 ft 420 kts 263°
2026-05-01 12:13 -31.04376 -55.83009 34004 ft 420 kts 263°
2026-05-01 12:14 -31.05749 -55.89630 34007 ft 420 kts 263°
2026-05-01 12:14 -31.07124 -55.96272 34013 ft 420 kts 263°
2026-05-01 12:15 -31.08485 -56.02862 34013 ft 420 kts 263°
2026-05-01 12:15 -31.09845 -56.09476 33945 ft 413 kts 263°
2026-05-01 12:16 -31.11191 -56.16025 33972 ft 418 kts 263°
2026-05-01 12:16 -31.12516 -56.22686 33990 ft 422 kts 264°
2026-05-01 12:17 -31.13740 -56.29391 33996 ft 423 kts 264°
2026-05-01 12:17 -31.14955 -56.36130 33994 ft 424 kts 264°
2026-05-01 12:18 -31.16181 -56.42886 33984 ft 426 kts 264°
2026-05-01 12:18 -31.17405 -56.49617 33595 ft 428 kts 264°
2026-05-01 12:19 -31.18020 -56.52998 32816 ft 427 kts 264°
2026-05-01 12:19 -31.18636 -56.56395 32022 ft 427 kts 264°
2026-05-01 12:19 -31.19250 -56.59788 31211 ft 428 kts 264°
2026-05-01 12:19 -31.19867 -56.63198 30349 ft 430 kts 264°
2026-05-01 12:20 -31.20484 -56.66625 29348 ft 432 kts 264°
2026-05-01 12:20 -31.21103 -56.70062 28337 ft 433 kts 264°
2026-05-01 12:20 -31.21724 -56.73512 27319 ft 434 kts 264°
2026-05-01 12:20 -31.22345 -56.76968 26290 ft 436 kts 263°
2026-05-01 12:21 -31.22969 -56.80441 25479 ft 433 kts 263°
2026-05-01 12:21 -31.23584 -56.83863 24718 ft 429 kts 263°
2026-05-01 12:21 -31.24192 -56.87253 23965 ft 426 kts 263°
2026-05-01 12:21 -31.24797 -56.90641 23161 ft 423 kts 263°
2026-05-01 12:22 -31.25394 -56.93989 22372 ft 418 kts 263°
2026-05-01 12:22 -31.25983 -56.97306 21634 ft 416 kts 263°
2026-05-01 12:22 -31.26573 -57.00631 20868 ft 416 kts 263°
2026-05-01 12:22 -31.27153 -57.03887 20119 ft 413 kts 262°
2026-05-01 12:23 -31.27733 -57.07158 19411 ft 408 kts 262°
2026-05-01 12:23 -31.28304 -57.10396 18680 ft 406 kts 262°
2026-05-01 12:23 -31.28872 -57.13622 17903 ft 404 kts 262°
2026-05-01 12:23 -31.29437 -57.16828 17132 ft 400 kts 262°
2026-05-01 12:24 -31.29995 -57.19993 16396 ft 395 kts 262°
2026-05-01 12:24 -31.30545 -57.23120 15692 ft 391 kts 262°
2026-05-01 12:24 -31.31094 -57.26218 14994 ft 388 kts 261°
2026-05-01 12:24 -31.31845 -57.29267 14317 ft 389 kts 255°
2026-05-01 12:25 -31.32766 -57.32191 14022 ft 378 kts 253°
2026-05-01 12:25 -31.34642 -57.37828 12250 ft 368 kts 253°
2026-05-01 12:25 -31.35556 -57.40614 11215 ft 364 kts 253°
2026-05-01 12:26 -31.36428 -57.43313 10864 ft 344 kts 254°
2026-05-01 12:26 -31.38020 -57.48297 10560 ft 315 kts 255°
2026-05-01 12:26 -31.38784 -57.50739 10451 ft 321 kts 255°
2026-05-01 12:27 -31.39536 -57.53144 10309 ft 307 kts 255°
2026-05-01 12:27 -31.40920 -57.57548 10046 ft 270 kts 256°
2026-05-01 12:28 -31.42156 -57.61505 9621 ft 250 kts 256°
2026-05-01 12:28 -31.42743 -57.63394 9366 ft 244 kts 256°
2026-05-01 12:28 -31.43880 -57.67068 8894 ft 242 kts 256°
2026-05-01 12:29 -31.44457 -57.68925 8601 ft 245 kts 256°
2026-05-01 12:29 -31.45040 -57.70810 8332 ft 245 kts 256°
2026-05-01 12:29 -31.46203 -57.74566 7807 ft 244 kts 255°
2026-05-01 12:30 -31.47355 -57.78282 7291 ft 242 kts 255°
2026-05-01 12:30 -31.47930 -57.80137 7043 ft 242 kts 255°
2026-05-01 12:30 -31.48505 -57.81992 6773 ft 242 kts 255°
2026-05-01 12:31 -31.49080 -57.83848 6515 ft 242 kts 254°
2026-05-01 12:31 -31.49653 -57.85704 6249 ft 242 kts 254°
2026-05-01 12:31 -31.50219 -57.87531 6211 ft 237 kts 254°
2026-05-01 12:31 -31.50778 -57.89342 6001 ft 242 kts 254°
2026-05-01 12:32 -31.51350 -57.91199 5746 ft 241 kts 254°
2026-05-01 12:32 -31.53088 -57.94559 5225 ft 247 kts 230°
2026-05-01 12:32 -31.54276 -57.96018 4960 ft 247 kts 230°
2026-05-01 12:33 -31.55450 -57.97484 4721 ft 246 kts 230°
2026-05-01 12:33 -31.56618 -57.98951 4484 ft 245 kts 231°
2026-05-01 12:33 -31.57781 -58.00406 4271 ft 243 kts 231°
2026-05-01 12:33 -31.58930 -58.01838 4106 ft 240 kts 231°
2026-05-01 12:34 -31.60071 -58.03249 3990 ft 235 kts 231°
2026-05-01 12:34 -31.61190 -58.04625 3866 ft 234 kts 231°
2026-05-01 12:34 -31.62289 -58.05968 3868 ft 220 kts 231°
2026-05-01 12:34 -31.63163 -58.07329 3840 ft 199 kts 243°
2026-05-01 12:35 -31.63901 -58.08653 3827 ft 191 kts 242°
2026-05-01 12:35 -31.64484 -58.09984 3694 ft 171 kts 266°
2026-05-01 12:35 -31.64317 -58.11281 3345 ft 158 kts 297°
2026-05-01 12:35 -31.63811 -58.12367 3174 ft 148 kts 315°
2026-05-01 12:36 -31.62926 -58.12928 3144 ft 150 kts 339°
2026-05-01 12:36 -31.61919 -58.13333 3082 ft 155 kts 339°
2026-05-01 12:36 -31.60866 -58.13716 3042 ft 167 kts 349°
2026-05-01 12:36 -31.59762 -58.13386 3027 ft 167 kts 27°
2026-05-01 12:37 -31.58821 -58.12619 3004 ft 162 kts 29°
2026-05-01 12:37 -31.57925 -58.11812 3018 ft 160 kts 31°
2026-05-01 12:37 -31.57068 -58.11007 3002 ft 155 kts 31°
2026-05-01 12:37 -31.56234 -58.10221 3032 ft 151 kts 31°
2026-05-01 12:38 -31.55440 -58.09469 3022 ft 141 kts 31°
2026-05-01 12:38 -31.54674 -58.08747 2850 ft 141 kts 30°
2026-05-01 12:38 -31.53924 -58.08040 2670 ft 137 kts 30°
2026-05-01 12:38 -31.53187 -58.07345 2487 ft 135 kts 29°
2026-05-01 12:39 -31.52458 -58.06657 2301 ft 134 kts 30°
2026-05-01 12:39 -31.51743 -58.05981 2118 ft 130 kts 30°
2026-05-01 12:39 -31.51039 -58.05318 1946 ft 129 kts 31°
2026-05-01 12:39 -31.50582 -58.04886 1827 ft 126 kts 31°
2026-05-01 12:40 -31.49909 -58.04251 1661 ft 122 kts 31°
2026-05-01 12:40 -31.49035 -58.03427 1406 ft 121 kts 30°
2026-05-01 12:40 -31.48381 -58.02809 1246 ft 122 kts 32°
2026-05-01 12:40 -31.47705 -58.02172 1075 ft 127 kts 34°
2026-05-01 12:41 -31.47242 -58.01734 975 ft 128 kts 34°
2026-05-01 12:41 -31.46546 -58.01068 807 ft 131 kts 40°
2026-05-01 12:41 -31.45821 -58.00386 616 ft 133 kts 39°
2026-05-01 12:41 -31.45087 -57.99700 388 ft 136 kts 41°
2026-05-01 12:42 -31.44346 -57.98998 125 ft 135 kts 42°
2026-05-01 12:42 -31.43791 -57.98476 132 ft 56 kts 38°
2026-05-01 12:42 -31.43696 -57.98379 132 ft 4 kts 77°
2026-05-01 12:42 -31.43699 -57.98356 132 ft 0 kts 112°
2026-05-01 12:43 -31.43701 -57.98353 133 ft 0 kts 114°
2026-05-01 12:43 -31.43715 -57.98321 133 ft 6 kts 116°
2026-05-01 12:44 -31.43726 -57.98270 133 ft 7 kts 100°
2026-05-01 12:44 -31.43735 -57.98204 133 ft 9 kts 99°
2026-05-01 12:44 -31.43767 -57.98124 133 ft 2 kts 133°
2026-05-01 12:45 -31.43760 -57.98117 133 ft 1 kts 14°
2026-05-01 12:45 -31.43759 -57.98118 133 ft 2 kts
2026-05-01 12:45 -31.43745 -57.98130 133 ft 3 kts 298°
2026-05-01 12:46 -31.43745 -57.98132 133 ft 0 kts 288°
2026-05-01 12:46 -31.43747 -57.98126 133 ft 2 kts 285°
2026-05-01 12:47 -31.43750 -57.98099 134 ft 2 kts 263°
2026-05-01 12:47 -31.43755 -57.98113 133 ft 2 kts 250°
2026-05-01 12:47 -31.43756 -57.98118 133 ft 0 kts 255°
2026-05-01 12:47 -31.43756 -57.98119 133 ft 0 kts 251°
2026-05-01 12:48 -31.43757 -57.98120 133 ft 0 kts 250°